{"data":{"norad_id":58225,"epoch":"2026-05-24T21:36:01.177632Z","epoch_age_seconds":83659,"freshness":"FRESH","line1":"1 58225U 23170V   26144.90001363 -.00000492  00000+0 -83369-5 0  9994","line2":"2 58225  43.0026 341.9153 0001363 272.4481  87.6215 15.27578139143629","mean_motion":15.27578139,"eccentricity":0.0001363,"inclination_deg":43.0026,"raan_deg":341.9153,"arg_perigee_deg":272.4481,"mean_anomaly_deg":87.6215,"bstar":-8.3369e-6,"rev_number":14362,"period_min":94.266863555842,"perigee_km":482.11948812438,"apogee_km":483.98984897322,"semimajor_km":6861.1916685488,"source":"CELESTRAK","updated_at":"2026-05-25T13:38:18.578076Z"}}